Погода в Великовечном

Россия / Краснодарский край     44°55′57″N   39°45′24″E
темп.,
°C
ветер,
м/с
пор.,
м/с
влажн.,
%
обл.,
%
осадки,
мм/ч
давл.,
гПа
погр.,
м
15 мая, сб
сб1500:00+16зюз46930 0.0 101195
03:00+14з34820 0.0 101263
06:00+14зюз23810 0.0 101456
09:00+19зюз22665 0.0 1014333
12:00+23ссз12585 0.0 1014570
15:00+25с225536 0.0 1013952
18:00+25всв23730 0.0 1013114
21:00+19св46860 0.0 101275
16 мая, вс
вс1600:00+18всв12910 0.0 101115
03:00+17св119464 0.8 101111
06:00+18в23956 0.3 101092
09:00+23всв3485100 0.3 1009476
12:00+26всв4572100 0.0 1007941
15:00+27всв5769100 0.0 10051275
18:00+26всв48790 0.0 1003333
21:00+21в412914 0.0 1003235
17 мая, пн
пн1700:00+18вюв22872 0.0 100227
03:00+17ю119063 0.0 100211
06:00+18з3691100 0.0 1004139
09:00+21зюз5772100 0.0 1006513
12:00+23зюз6965100 0.0 1008833
15:00+23з6107088 0.6 1008782
18:00+19зюз3683100 2.1 1009125
21:00+17юз4793100 2.4 1011147
18 мая, вт
вт1800:00+15ююз3692100 0.6 1011162
03:00+14зюз3592100 0.6 1011124
06:00+14юз2493100 0.0 1013115
09:00+19зюз457735 0.0 1013617
12:00+22з45621 0.0 10131200
15:00+23з56600 0.0 10121170
18:00+20зюз477381 0.0 1013315
21:00+15юз22822 0.0 101319
19 мая, ср
ср1900:00+14ю22865 0.0 101323
03:00+14ююв22925 0.0 101318
06:00+15вюв118919 0.0 101428
09:00+18вюв127942 0.0 1014240
12:00+24юв23619 0.0 10131038
15:00+26ссз11542 0.0 10121387
18:00+25св12686 0.0 1011172
21:00+20с33805 0.2 101245